Flag for U.S.A. Weather past 2 weeks in Butte, Montana, U.S.A.

Now
64 °F

Sunny.


Feels Like: 64 °F
Forecast: 50 / 62 °F
Wind: 5 mph from West

Location: Mooney Airport

Current Time: Aug 4, 2015 at 9:25:35 PM

Latest Report: Aug 4, 2015 at 8:53 PM


Visibility: 10 mi

Pressure: 29.93 "Hg (24.56 "Hg at 1685m altitude)

Humidity: 58%

Dew point: 49 °F

Location of ButteLocation

Historic Weather in Butte — Graph

°F

Butte temperature yesterday

Maximum temperature yesterday: 87 °F (at 5:53 PM)
Minimum temperature yesterday: 52 °F (at 4:53 AM)
Average temperature yesterday: 70 °F

Past Weeks' High & Low Weather Summary

 TemperatureHumidityPressure
High89 °F (Aug 2, 4:53 PM)97% (Jul 24, 3:53 AM)30.32 "Hg (Jul 24, 3:53 AM)
Low37 °F (Jul 29, 5:53 AM)6% (Aug 2, 1:53 PM)29.73 "Hg (Jul 21, 7:53 PM)
Average63 °F49%29.99 "Hg
* Reported Jul 20 8:53 PM — Aug 4 8:02 PM, Butte, Weather by CustomWeather, © 2015

Note: Actual official high and low records may vary slightly from our data, if they occured in-between our weather recording intervals... More about our weather records

Advertising

Butte weather history for previous 24 hours

 ConditionsComfort  
Time TempWeatherWind HumidityBarometerVisibility
8:02 PM
Tue, Aug 4
68 °FScattered clouds.13 mph51%30.06 "Hg10 mi
7:53 PM69 °FThundershowers. Partly sunny.5 mph42%29.92 "Hg10 mi
6:53 PM76 °FLight rain. Partly sunny.5 mph26%29.85 "Hg10 mi
5:53 PM79 °FPassing clouds.6 mph22%29.84 "Hg10 mi
4:53 PM77 °FPassing clouds.13 mph28%29.86 "Hg10 mi
3:53 PM76 °FPassing clouds.14 mph29%29.88 "Hg10 mi
2:53 PM75 °FPartly sunny.12 mph30%29.88 "Hg10 mi
1:53 PM77 °FPartly sunny.13 mph28%29.86 "Hg10 mi
12:53 PM76 °FPartly sunny.9 mph30%29.87 "Hg10 mi
11:53 AM75 °FPassing clouds.7 mph30%29.88 "Hg10 mi
10:53 AM73 °FPassing clouds.6 mph38%29.90 "Hg10 mi
9:53 AM71 °FSunny.3 mph41%29.90 "Hg10 mi
8:53 AM67 °FPartly sunny.No wind49%29.91 "Hg10 mi
7:53 AM64 °FPartly sunny.3 mph56%29.90 "Hg10 mi
6:53 AM64 °FPassing clouds.No wind54%29.89 "Hg10 mi
5:53 AM64 °FOvercast.5 mph54%29.88 "Hg10 mi
4:53 AM65 °FOvercast.5 mph52%29.86 "Hg10 mi
3:53 AM63 °FMostly cloudy.9 mph63%29.87 "Hg10 mi
2:53 AM64 °FLight rain. Mostly cloudy.8 mph58%29.87 "Hg8 mi
1:53 AM68 °FOvercast.3 mph47%29.87 "Hg10 mi
12:53 AM68 °FOvercast.No wind44%29.85 "Hg10 mi
11:53 PM
Mon, Aug 3
69 °FOvercast.No wind38%29.84 "Hg10 mi
10:53 PM69 °FClear.5 mph36%29.83 "Hg10 mi
9:53 PM74 °FSunny.6 mph29%29.80 "Hg10 mi
Weather by CustomWeather, © 2015

See weather overviewHow to use our weather pages